GFSSE_con_3kmhel_210.txt.gz
Helicity
59 142 122 116 122 106 99 109 126 117 106 117 114 91 79 77 70 67 62 60 46 50 51 60 64 61 56 37 34 35 35 29 20 35 27 24 25 27 22 8 3 43 33
89 137 142 130 149 131 111 123 150 138 123 120 118 93 77 75 68 68 71 63 52 46 49 52 67 73 68 61 49 42 44 40 27 32 28 26 24 22 20 9 36 46 38
76 124 144 145 156 147 135 135 152 144 128 124 115 90 74 73 67 69 77 71 64 45 44 47 50 65 68 65 67 66 65 55 55 38 2 28 33 21 31 39 52 34 35
80 120 158 167 169 158 142 137 140 143 136 126 111 89 76 76 67 64 72 73 71 50 35 37 46 47 54 48 44 45 53 55 59 34 25 40 52 41 38 43 53 48 47
94 123 162 179 172 163 155 149 149 142 137 123 108 95 86 81 70 68 68 75 67 58 43 41 47 50 44 43 27 25 30 39 28 18 31 30 49 65 62 59 52 46 20
97 99 183 171 157 154 151 151 149 138 128 120 112 105 94 79 68 66 57 67 64 60 55 48 49 48 40 44 40 33 39 38 28 16 35 39 56 79 60 63 86 79 72
92 98 116 132 138 148 157 152 138 130 117 119 113 107 92 80 71 70 58 67 70 69 61 57 53 59 50 38 46 52 58 41 19 19 24 47 63 85 65 54 65 73 84
109 105 88 98 119 135 144 149 144 129 112 113 109 104 92 87 72 69 65 75 91 94 66 61 65 59 49 39 51 47 49 36 27 23 13 31 127 79 75 96 92 81 78
122 103 89 88 97 116 107 118 123 117 97 93 93 100 102 87 78 70 71 75 101 94 71 63 61 58 51 45 51 52 46 38 7 32 26 24 130 67 76 68 85 106 94
133 106 87 80 89 100 82 84 98 94 82 75 78 95 98 82 77 66 75 75 88 84 70 61 59 54 41 35 34 39 43 20 11 21 25 53 101 75 92 89 94 92 86
138 91 83 85 90 89 74 80 95 75 66 70 69 81 82 55 69 78 51 106 83 93 82 77 65 59 51 45 40 41 33 12 19 16 21 127 82 69 74 85 84 82 82
133 87 74 83 91 90 75 70 71 71 62 45 50 70 46 47 51 56 95 89 76 82 91 73 67 65 41 34 56 67 41 19 27 14 12 111 99 76 74 85 102 96 111
93 72 69 83 84 68 60 64 79 90 76 57 51 60 38 74 75 68 99 70 59 63 53 65 53 33 54 51 51 55 57 59 48 45 55 119 95 69 88 125 109 79 91
89 81 73 86 95 71 58 54 66 73 75 79 69 82 105 110 91 72 64 41 51 52 43 53 58 65 56 57 60 64 70 71 74 72 78 153 110 95 98 90 115 85 75
77 78 78 99 104 100 79 69 48 49 57 63 73 74 70 83 68 48 49 54 48 49 43 63 69 75 86 88 85 80 73 69 69 87 92 177 131 125 113 103 107 71 53
42 71 78 90 104 119 95 85 79 65 60 58 74 87 88 83 87 76 60 44 51 55 71 65 78 86 89 89 89 97 106 110 103 102 106 134 153 129 126 123 112 103 74
19 24 49 76 111 124 109 111 111 91 79 65 70 71 80 85 83 68 75 78 62 69 67 70 74 76 78 84 82 82 92 94 99 107 109 115 158 148 147 166 153 145 100
8 21 46 68 111 111 108 134 152 135 111 86 69 62 54 55 53 64 64 52 67 70 63 81 85 88 89 119 119 119 115 113 116 126 128 136 130 149 152 155 174 188 171
11 39 61 77 126 135 131 160 186 167 150 142 107 92 79 78 76 65 42 43 52 56 84 81 118 146 165 161 167 177 187 224 211 187 200 178 142 152 150 153 166 192 190
59 69 93 126 161 189 204 211 212 190 177 165 143 114 96 78 64 55 64 71 92 73 89 94 95 113 138 161 180 217 244 263 282 327 301 260 190 169 161 167 197 174 218
118 124 135 163 206 252 296 318 293 261 196 182 150 150 149 140 101 85 81 103 107 126 126 123 136 146 171 178 210 217 242 254 264 261 291 313 312 230 209 226 292 288 291
182 167 173 185 218 271 361 394 392 352 308 315 247 198 173 146 134 131 138 137 134 140 129 136 146 165 171 184 222 232 252 263 263 199 227 262 300 309 345 321 306 351 364
208 229 203 256 332 381 385 472 484 464 345 296 225 199 191 150 118 100 107 116 118 121 137 140 138 154 172 189 225 285 316 297 294 286 215 208 181 263 267 308 315 379 506
257 306 297 336 408 438 453 443 403 343 318 277 234 210 163 125 115 109 107 112 111 113 110 114 126 157 182 200 230 267 290 246 271 238 319 285 231 205 181 222 201 217 341
315 335 404 456 461 481 436 419 407 395 306 250 224 183 153 118 107 96 91 88 78 87 105 125 145 172 193 210 247 259 286 321 267 319 272 239 234 226 211 223 245 223 264
326 360 393 440 461 422 383 360 327 284 261 234 202 159 116 99 91 69 61 64 75 89 110 137 150 162 184 209 234 250 274 315 293 282 320 222 187 152 111 184 236 246 279

GFSSE_con_3kmhel_213.txt.gz
Helicity
53 133 145 133 93 72 75 77 79 75 73 75 84 76 59 55 56 50 38 30 26 18 20 12 5 9 12 19 30 32 36 34 39 38 35 36 27 12 -1 -21 -13 36 25
102 132 166 139 101 90 90 81 85 87 80 85 87 78 63 63 65 55 42 34 30 28 30 14 12 6 11 15 21 24 22 24 26 24 37 43 35 17 1 13 88 44 29
106 132 173 140 122 112 105 91 98 97 90 95 89 79 65 66 70 57 43 31 32 37 40 32 21 23 23 20 19 16 18 16 14 15 -1 8 38 11 11 31 48 36 33
86 142 172 156 149 135 121 113 109 103 100 98 92 78 63 61 68 62 55 38 38 44 53 43 36 35 39 37 41 39 30 25 14 -1 19 33 54 32 27 35 36 30 34
78 131 177 187 150 139 129 130 119 103 102 100 94 75 59 56 68 66 56 46 46 51 53 51 44 42 40 40 43 47 34 16 7 -2 28 78 56 56 41 38 39 31 12
86 99 236 196 156 148 143 135 122 112 108 103 92 78 55 54 65 67 65 52 52 54 55 47 34 31 28 23 22 22 26 26 -5 60 40 59 51 81 54 49 69 61 51
110 118 166 185 141 136 141 138 129 118 110 100 90 81 64 60 64 71 66 50 42 44 47 43 39 27 18 11 11 17 25 15 14 8 9 45 86 81 63 57 62 61 68
126 139 125 145 127 125 124 117 114 120 110 91 86 77 73 56 57 62 59 53 44 43 43 37 34 25 5 -4 -4 -4 5 4 26 21 10 32 160 87 51 46 67 83 85
149 152 127 120 121 124 114 101 100 100 97 86 81 78 68 57 50 50 55 65 49 44 44 43 38 31 25 1 -8 -14 -14 -8 -14 -6 13 39 150 99 84 64 52 68 74
161 162 141 111 112 121 120 103 104 91 82 78 75 73 67 69 49 48 67 65 60 53 45 48 42 35 36 24 19 7 -6 -13 -11 10 21 76 87 61 79 73 67 65 71
156 157 143 111 103 106 124 119 100 92 91 85 75 69 64 50 56 65 39 117 71 58 58 45 40 34 29 31 40 49 40 21 18 6 -1 160 110 78 73 62 72 75 90
114 151 135 116 107 92 92 155 90 93 92 77 61 71 41 30 55 41 83 95 85 73 63 57 49 41 33 19 51 62 41 21 17 15 50 154 156 132 104 86 88 83 63
138 119 132 112 113 92 102 139 101 89 79 69 56 71 35 42 72 110 125 77 58 63 44 53 54 36 30 37 60 64 53 44 43 56 75 161 141 116 108 105 112 137 113
165 118 122 105 113 83 102 97 106 127 53 79 58 70 49 73 84 80 87 84 61 63 41 64 55 45 71 65 71 82 72 71 74 70 83 172 137 122 109 109 128 156 141
92 162 129 122 121 107 107 93 131 126 101 86 73 71 95 109 104 96 78 81 77 71 57 54 59 102 111 84 70 81 84 73 74 93 107 197 182 171 143 113 111 137 152
51 137 148 125 114 128 101 126 113 124 103 100 88 60 54 80 101 93 84 73 64 68 59 82 72 74 80 87 87 89 63 67 74 86 100 136 205 206 179 159 143 124 128
35 77 174 112 111 128 123 133 124 125 116 93 79 82 84 84 97 103 91 89 76 64 60 84 78 65 63 57 60 72 91 76 72 86 104 120 159 221 222 193 179 160 157
39 93 154 97 102 130 124 139 150 157 137 118 103 78 62 65 68 68 90 84 109 119 114 70 83 73 61 72 75 103 74 95 125 140 126 136 154 178 235 193 195 189 189
48 68 113 117 84 117 96 132 166 192 163 135 113 91 87 95 79 86 94 97 89 80 82 71 85 85 99 97 112 116 129 144 147 174 224 233 211 208 243 289 221 206 231
66 71 104 117 110 133 185 173 224 219 222 212 192 168 126 116 93 89 71 65 67 70 64 69 79 94 104 113 155 179 190 203 192 242 245 242 235 279 277 238 369 361 286
113 99 116 184 161 196 253 269 302 293 238 214 205 175 194 164 129 81 76 63 82 82 125 144 113 102 120 130 153 141 118 142 146 184 220 260 289 302 268 307 308 377 415
136 125 152 234 193 229 262 297 323 286 248 244 241 241 197 175 181 153 170 139 125 131 114 111 117 124 141 155 182 202 188 192 231 187 192 196 208 220 228 225 245 252 327
149 175 257 200 197 219 303 424 478 477 502 463 392 271 237 198 185 182 150 142 126 105 101 117 122 141 155 163 169 202 217 223 277 308 326 285 299 268 220 208 206 229 216
173 193 240 219 275 357 353 426 489 497 488 397 317 357 252 221 173 161 131 115 103 104 112 118 118 163 158 166 192 211 220 235 262 255 331 260 220 253 267 232 158 170 195
204 235 317 340 326 328 396 392 456 409 506 378 410 297 265 211 174 147 113 109 112 115 115 118 125 132 155 175 179 197 225 256 247 279 256 280 237 234 247 266 254 217 185
247 231 281 301 362 404 446 475 493 499 424 382 325 239 232 170 162 132 124 117 109 93 79 101 140 143 153 177 202 226 238 254 264 261 285 254 243 243 255 253 297 235 187

GFSSE_con_3kmhel_216.txt.gz
Helicity
89 123 123 143 112 108 83 59 36 31 35 34 42 47 34 22 12 10 8 10 9 13 7 4 -4 -19 -24 -21 -7 3 9 13 16 23 29 34 31 24 -3 -10 1 25 21
199 134 120 140 130 119 96 72 49 41 43 43 47 57 45 34 24 21 16 12 11 13 16 15 14 9 12 17 10 8 8 12 20 23 29 32 33 24 34 71 50 31 23
138 120 126 145 133 115 100 81 65 53 49 52 53 63 55 39 30 26 25 23 17 18 16 20 13 19 18 20 18 13 7 14 11 -10 -24 17 29 24 28 42 43 38 22
101 102 131 142 117 104 98 83 80 68 54 55 57 64 60 47 42 32 32 27 21 20 16 15 13 5 9 13 15 15 17 19 3 1 -12 35 36 33 25 37 37 29 30
99 84 127 151 135 121 106 90 90 71 57 55 53 62 66 51 45 39 37 31 23 19 10 7 7 8 10 8 12 12 13 14 -12 -0 65 83 49 29 27 25 29 26 11
123 91 160 166 167 140 118 100 93 73 60 57 50 56 62 50 43 38 40 35 26 19 17 9 5 2 4 3 3 4 8 2 -21 26 36 48 76 44 30 19 27 37 33
143 234 185 205 179 152 126 109 97 81 70 62 52 50 54 50 47 40 39 34 32 28 24 14 10 6 4 -3 -7 -1 5 -2 21 63 41 46 81 76 61 47 35 35 33
273 215 198 218 189 170 148 120 102 87 78 72 61 48 48 51 57 46 42 36 43 42 24 17 15 6 -1 -4 -8 -8 -7 -8 -5 25 40 138 150 137 96 73 55 52 50
251 221 162 166 185 173 157 137 117 97 92 78 66 51 47 50 53 52 51 48 47 39 24 18 16 8 -4 -6 -3 1 -2 -3 -31 -23 22 155 142 95 70 75 69 63 68
244 268 154 159 170 158 159 155 140 117 104 88 68 52 42 52 55 56 54 51 50 35 28 20 19 14 8 -0 3 -4 -10 -16 -22 -19 6 138 152 116 93 86 97 75 72
175 224 159 156 155 150 156 159 153 126 114 107 86 57 58 47 54 70 27 66 54 52 41 39 36 34 21 10 18 21 22 7 -0 19 39 148 142 125 100 98 111 111 108
123 195 209 154 122 129 126 192 174 143 130 123 110 97 65 32 67 54 87 100 68 64 59 50 44 41 39 28 61 50 46 38 3 1 87 115 121 111 114 128 136 120 120
234 231 224 212 132 91 43 217 140 165 145 125 112 114 77 47 43 75 174 131 106 83 74 68 64 58 57 53 90 63 40 30 42 46 108 136 130 117 110 120 134 123 124
267 267 297 233 172 84 152 202 144 145 129 122 115 90 82 53 87 111 130 101 81 95 59 103 71 61 42 48 86 74 93 82 47 71 101 167 144 131 111 111 125 135 142
177 246 367 258 202 122 110 174 158 152 97 105 101 84 90 92 106 111 112 98 96 80 81 87 83 69 80 94 91 72 76 73 63 72 84 140 161 161 137 123 132 145 155
106 278 400 363 223 146 156 148 175 184 115 135 147 118 105 114 117 115 134 129 106 92 56 59 78 67 90 85 60 60 62 65 66 59 76 96 144 163 175 160 164 184 184
77 221 386 396 245 167 148 207 145 104 111 125 110 111 110 119 112 114 119 105 105 106 85 81 77 106 103 86 55 62 63 97 102 95 115 133 157 172 200 208 211 206 226
98 187 358 404 293 213 129 206 153 142 120 115 87 75 90 100 112 114 100 100 115 123 139 144 159 136 88 72 61 75 90 115 110 125 137 177 199 214 233 238 235 224 223
74 189 340 398 315 234 133 215 146 244 162 108 114 120 100 96 106 108 106 115 141 113 127 135 112 83 78 81 80 85 103 137 141 152 169 190 199 246 280 293 268 246 212
76 191 331 381 330 244 168 180 246 260 185 155 173 179 172 172 135 132 124 105 98 116 95 83 55 69 82 93 108 118 142 156 156 172 179 186 214 228 238 221 257 261 211
128 170 308 396 369 287 251 270 313 308 265 246 230 219 195 177 145 142 123 91 91 85 113 109 121 126 119 114 121 130 163 178 184 220 222 222 205 205 216 212 211 196 223
120 192 274 401 509 378 320 271 275 288 240 227 237 227 248 240 213 157 176 185 213 213 198 162 150 125 117 116 130 132 141 165 213 203 207 265 247 222 195 177 177 164 156
124 195 262 451 451 386 346 338 303 215 252 331 318 310 288 312 320 342 280 275 229 178 151 145 140 118 107 115 140 164 156 153 176 241 202 254 303 316 294 257 278 230 215
178 193 331 437 427 370 343 359 300 427 485 478 481 468 420 318 301 302 246 224 198 179 159 130 135 145 135 128 151 167 194 207 201 181 240 218 200 197 229 229 286 285 197
268 291 355 382 393 405 408 398 406 484 488 467 452 462 391 346 294 251 245 210 188 163 149 144 129 129 140 162 174 187 198 207 206 212 189 183 184 212 230 254 245 307 307
309 423 506 501 420 423 428 416 423 481 498 586 565 482 346 307 197 236 193 195 168 152 143 151 145 132 132 155 174 183 193 209 186 183 194 196 200 203 201 191 196 260 270

GFSSE_con_3kmhel_222.txt.gz
Helicity
-15 75 70 98 109 123 102 86 61 37 31 31 29 19 18 33 41 38 36 33 32 20 -0 -8 -16 -17 -15 -5 -1 8 8 12 -3 7 11 23 26 -5 6 1 1 -4 2
106 88 89 108 120 125 120 94 68 44 33 33 31 11 15 21 24 26 27 23 22 23 14 5 -5 -9 -4 -2 7 12 27 31 28 20 -10 -25 -6 5 -7 -12 -4 -5 -8
173 91 76 114 124 121 126 108 71 53 38 35 33 16 15 13 20 15 15 16 19 20 20 14 9 5 3 5 5 9 15 18 15 10 -15 -1 -2 15 14 -3 -3 -4 1
174 101 68 105 127 125 127 114 86 60 47 37 35 28 16 15 20 13 3 -0 10 16 17 21 17 6 -0 4 6 12 22 15 14 6 14 10 14 25 46 26 7 5 5
158 88 63 100 129 129 133 123 97 65 53 44 38 35 22 17 21 22 2 -7 1 12 14 17 19 11 1 -0 4 1 6 3 10 23 28 27 38 44 38 26 15 12 13
110 71 74 102 121 123 133 126 108 78 56 50 43 40 31 19 19 21 10 -1 -8 1 11 9 12 7 -5 -8 1 -4 -1 4 -4 31 22 35 52 52 56 46 48 43 35
93 71 84 95 109 118 127 131 116 84 72 55 51 48 46 33 19 16 20 4 -6 -1 2 3 1 -11 -18 -17 -10 -11 -2 3 7 32 40 44 51 66 88 83 88 89 72
116 100 91 89 95 114 121 126 122 102 88 64 60 59 59 48 35 25 17 15 7 3 1 -10 -19 -16 -15 -14 -9 -13 -8 -5 -7 28 41 25 72 65 100 96 82 98 97
115 125 110 101 89 105 106 121 130 118 104 83 80 70 68 58 43 38 32 23 25 12 1 -10 -7 -10 -7 -7 -8 -3 -9 -1 -21 13 23 14 74 89 109 101 76 84 102
118 125 132 125 120 104 87 119 133 127 118 99 98 90 76 71 56 46 46 35 33 30 20 16 3 8 8 11 8 6 10 12 -20 47 58 49 65 83 97 84 71 75 89
123 137 133 152 153 140 120 108 128 129 129 119 108 97 93 75 68 59 45 45 43 38 31 22 21 16 19 20 22 22 23 24 21 24 60 55 79 86 93 90 77 79 85
122 114 133 153 184 192 170 147 146 140 140 145 136 120 104 82 71 74 52 46 49 48 40 30 24 28 35 40 39 36 42 53 65 74 79 51 96 90 91 103 94 93 92
133 163 139 166 193 217 222 194 170 168 163 137 138 132 102 92 77 71 74 67 66 58 68 56 48 48 45 48 44 48 43 40 57 91 90 72 66 71 80 99 91 87 88
168 173 179 197 236 206 216 222 188 186 166 150 136 135 127 111 93 73 77 80 82 81 66 69 69 51 40 45 44 50 41 48 53 70 66 46 44 45 43 66 71 86 103
222 218 221 237 259 238 215 228 191 162 155 148 132 127 121 113 108 101 81 92 87 96 80 67 61 61 55 53 45 51 55 51 48 55 55 24 21 39 53 61 85 93 97
229 304 314 253 255 257 210 209 187 154 136 139 122 126 119 98 102 108 89 85 102 95 83 78 74 69 65 69 57 59 52 54 45 47 37 38 23 34 55 64 66 70 73
252 339 393 321 263 269 219 201 207 164 150 134 118 106 110 105 106 118 117 104 95 97 88 92 82 85 76 89 81 92 80 62 53 55 56 57 54 42 39 53 65 75 79
237 332 372 338 289 289 248 218 217 197 175 147 119 85 83 78 89 105 122 114 118 128 124 121 118 118 117 125 107 78 61 56 57 58 68 79 86 90 86 79 89 89 82
300 320 356 369 363 318 289 263 228 220 199 186 142 111 97 88 96 102 104 107 126 131 140 158 171 171 157 130 100 79 75 73 72 71 71 79 87 105 131 138 134 140 139
307 331 345 397 398 356 330 340 316 248 242 228 192 155 150 122 121 120 102 112 137 167 179 187 174 155 141 132 135 110 87 76 84 97 96 102 109 124 156 173 180 171 133
348 377 334 395 449 441 410 412 356 282 275 270 202 164 154 136 136 154 136 155 163 172 164 152 168 159 171 171 137 107 89 91 110 115 117 123 135 159 175 181 190 189 185
385 367 345 307 451 439 430 384 364 315 263 260 227 160 149 143 159 190 196 188 200 206 186 207 215 221 203 190 153 97 87 92 146 152 137 125 119 144 140 166 186 188 187
359 335 320 369 421 466 483 505 463 410 316 274 223 210 199 192 209 235 277 259 265 269 287 298 269 226 212 204 191 178 168 132 87 83 134 135 157 163 168 156 185 183 163
281 395 455 412 408 469 592 580 494 447 388 333 346 285 289 293 318 352 372 341 335 338 347 306 274 250 214 193 194 203 207 203 149 129 123 144 109 148 131 144 158 140 126
296 421 426 422 448 489 587 610 585 456 428 417 434 337 374 387 390 408 409 394 416 394 351 304 281 283 246 231 202 178 160 167 185 210 186 140 163 146 158 163 142 110 106
295 409 438 497 522 565 564 595 553 552 569 499 444 414 468 483 479 444 441 419 388 356 367 307 311 245 269 213 202 181 174 176 181 167 155 138 137 151 152 157 128 136 114